Location: Caltech
(34.1382°N, 118.1253°W)
Time: 16:07:35
(UTC-08:00)

ASTRO E2 - Visible Passes

Search period start: 19 December 2014 00:00
Search period end: 29 December 2014 00:00
Orbit: 530 x 537 km, 31.4° (Epoch: 18 December)

Date Brightness Start Highest point End Pass type
(mag) Time Alt. Az. Time Alt. Az. Time Alt. Az.
19 Dec 4.7 04:24:17 28° ESE 04:24:17 28° ESE 04:26:23 10° E visible
19 Dec 3.7 05:59:32 12° W 06:03:03 41° SSW 06:06:55 10° ESE visible
20 Dec 5.3 04:13:03 20° ESE 04:13:03 20° ESE 04:14:26 10° ESE visible
20 Dec 3.8 05:48:18 16° WSW 05:51:05 36° SSW 05:54:51 10° SE visible
21 Dec 5.8 04:01:48 14° ESE 04:01:48 14° ESE 04:02:28 10° ESE visible
21 Dec 4.0 05:37:03 20° WSW 05:39:05 31° SSW 05:42:43 10° SE visible
22 Dec 4.2 05:25:47 22° SW 05:27:03 26° SSW 05:30:30 10° SE visible
23 Dec 4.3 05:14:32 22° SSW 05:14:59 22° SSW 05:18:12 10° SSE visible
24 Dec 4.7 05:03:17 18° SSW 05:03:17 18° SSW 05:05:47 10° SSE visible
25 Dec 5.2 04:52:02 14° S 04:52:02 14° S 04:53:11 10° S visible
